• Join FlightAware (Why Join?)
  • Login
  • US Flag 
06:02PM EDT


 

Airport Tracker/Info


-or-


 

Live Flight TrackerFlight Track Log ✈ TSU216 ✈ 31-Oct-2013 ✈ KTOL - KPTK

Flight Track Log - Related Links

Times and Time Zones

All times are in EDT time to prevent confusion due to time zone crossing. See the TSU216 flight status page for this flight to view local times or setup timezone preferences in your user account.

Time Position Orientation Groundspeed Altitude Reporting Facility
EDT Latitude Longitude Course Direction KTS MPH feet Rate Location/Type
02:09AM 41.6333 -83.8681 15° North 280 322 4,400  Level Cleveland Center
02:10AM 41.6897 -83.8431 18° North 336 387 5,100 840 Climbing Cleveland Center
02:10AM 41.6950 -83.8403 21° North 309 356 5,100 -120 Level Cleveland Center
02:11AM 41.7725 -83.8075 18° North 326 375 5,000 -120 Descending Cleveland Center
02:11AM 41.7789 -83.8036 24° Northeast 316 364 5,000  Level Cleveland Center
02:12AM 41.8550 -83.7719 17° North 310 357 5,000  Level Cleveland Center
02:12AM 41.8614 -83.7667 32° Northeast 314 361 5,000  Level Cleveland Center
02:13AM 41.9333 -83.7386 16° North 291 335 5,000  Level Cleveland Center
02:13AM 41.9389 -83.7342 31° Northeast 298 343 5,000  Level Cleveland Center
02:14AM 42.0046 -83.6594 15° North  Level Estimated
02:14AM 42.0156 -83.7058 15° North 285 328 5,000  Level Cleveland Center
02:14AM 42.0147 -83.7025 109° East 289 333 5,000  Level Cleveland Center
02:15AM 42.0917 -83.6717 17° North 292 336 5,000  Level Cleveland Center
02:15AM 42.0925 -83.6692 66° East 290 334 5,000  Level Cleveland Center
02:16AM 42.1742 -83.6358 17° North 309 356 5,000  Level Cleveland Center
02:16AM 42.1744 -83.6336 80° East 302 348 5,000  Level Cleveland Center
02:17AM 42.2608 -83.6006 16° North 322 371 5,000  Level Cleveland Center
02:17AM 42.2600 -83.5975 110° East 310 357 5,000 -240 Level Cleveland Center
02:18AM 42.3433 -83.5672 15° North 305 351 4,800 -240 Descending Cleveland Center
02:18AM 42.3450 -83.5653 41° Northeast 308 354 4,800 -1,320 Level Cleveland Center
02:19AM 42.4203 -83.5728 356° North 274 315 3,500 -1,440 Descending Cleveland Center
02:19AM 42.4231 -83.5703 34° Northeast 290 334 3,400 -540 Descending Cleveland Center
02:20AM 42.4875 -83.5994 342° North 233 268 3,000 -420 Descending Cleveland Center
02:20AM 42.4903 -83.5983 16° North 267 307 3,000  Level Cleveland Center
02:21AM 42.5403 -83.6186 343° North 184 212 3,000  Level Cleveland Center
02:21AM 42.5425 -83.6192 350° North 226 260 3,000  Level Cleveland Center
02:22AM 42.5911 -83.6403 342° North 184 212 3,000  Level Cleveland Center
02:22AM 42.5911 -83.6408 270° West 199 229 3,000 60 Level Cleveland Center
02:23AM 42.6403 -83.6531 350° North 197 227 3,100 60 Climbing Cleveland Center
02:23AM 42.6428 -83.6492 49° Northeast 216 249 3,100 -120 Level Cleveland Center
02:24AM 42.6603 -83.5878 69° East 173 199 3,000 -120 Descending Cleveland Center
02:24AM 42.6586 -83.5864 148° Southeast 196 226 3,000 -600 Level Cleveland Center
02:25AM 42.6611 -83.5228 87° East 163 188 2,400 -600 Descending Cleveland Center
02:25AM 42.6594 -83.5242 212° Southwest 177 204 2,400 -840 Level Cleveland Center
02:26AM 42.6633 -83.4692 84° East 139 160 1,600 -600 Descending Cleveland Center
02:27AM 42.6636 -83.4192 90° East 156 180 1,300 -540 Descending Cleveland Center
02:27AM 42.6642 -83.4322 273° West 133 153 1,100 -12,000 Descending Cleveland Center